{"data":{"norad_id":65754,"intl_designator":"2025-216W","name":"STARLINK-35287","alt_names":[],"object_type":"PAYLOAD","status":"ACTIVE","operator":null,"country":"US","launch_date":"2025-09-25","launch_site_code":"AFETR","launch_vehicle":null,"mission":null,"orbit_class":"UNKNOWN","rcs_meters":null,"size_class":null,"mass_kg":null,"dimensions":null,"purposes":["comms"],"wikipedia_slug":null,"has_3d_model":false,"image_url":null,"decayed_at":null,"tle_current":{"epoch":"2026-05-24T19:30:11.703744Z","epoch_age_seconds":101403,"freshness":"FRESH","line1":"1 65754U 25216W   26144.81263546  .00008131  00000+0  28620-3 0  9998","line2":"2 65754  53.1599 338.9291 0001082  83.9017 276.2108 15.30215819 38164","mean_motion":15.30215819,"eccentricity":0.0001082,"inclination_deg":53.1599,"raan_deg":338.9291,"arg_perigee_deg":83.9017,"mean_anomaly_deg":276.2108,"bstar":0.0002862,"rev_number":3816,"period_min":94.104372868204,"perigee_km":474.42630956024,"apogee_km":475.909364727,"semimajor_km":6853.3048371436,"source":"CELESTRAK","updated_at":"2026-05-25T13:38:20.933764Z"}}}